FALCON 9 DEB (45104 NORAD) Tracking and Keplerian Element Data

This shows tracking and keplerian element data for the satellite.

Feedback or suggestion? Click here.




ElementValue
Catalog45104
NameFALCON 9 DEB
Epoch Orbit955
Epoch Day89.01791141
Epoch Year2020
RAAN286.9762
Inclination52.9841
Eccentricity0.0009193
Argument of Perigee274.1714
Mean Anonmoly85.8281
Mean Motion16.40233264
Decay Rate0.0575361
L11 45104U 20006BN 20089.01791141 .05753610 12378-4 39950-3 0 9996
L22 45104 52.9841 286.9762 0009193 274.1714 85.8281 16.40233264 9555

Live tracking and technical data element details for FALCON 9 DEB (NORAD 45104). FALCON 9 DEB can be tracked NOW for your location showing map with azimuth and elevation plus other details from your city location.

Track the satellite on the map from your city or location and see movement details for azimuth, elevation, latitude, longitude, range, height, and movement on the map or in text.







IsCatalogInMostPopularTable: catalog: 45104, numindb: 38
Update: records affected: 1



GetName: 45104 FALCON 9 DEB

Hit Count: updated at: Mon, 13 Jul 2020 04:40:36 GMT